EA1M Weather Reports


Display with metric or nautical units.
time (UTC)temp
F
wind
direction
speed
MPH
gust
MPH
rain 1hr
in
rain 24hr
in
rain mn
in
humidity
%
barometer
mb
20260904051102 62 95 2.0 3.0 0.00 0.00 0.00 95 1021.3
20260904050021 62 117 2.0 4.0 0.00 0.00 0.00 94 1021.2
20260904045107 62 97 2.0 3.0 0.00 0.00 0.00 94 1021.4
20260904044110 62 91 2.0 3.0 0.00 0.00 0.00 94 1021.3
20260904043029 62 106 2.0 4.0 0.00 0.00 0.00 93 1021.3
20260904042053 62 140 3.0 4.0 0.00 0.00 0.00 93 1021.5
20260904041137 62 97 1.0 3.0 0.00 0.00 0.00 93 1021.4
20260904040038 62 124 2.0 3.0 0.00 0.00 0.00 93 1021.4
20260904035102 62 78 1.0 2.0 0.00 0.00 0.00 93 1021.6
20260904034042 63 97 1.0 3.0 0.00 0.00 0.00 93 1021.6
20260904033046 62 71 0.0 1.0 0.00 0.00 0.00 93 1021.6
20260904032110 62 77 1.0 2.0 0.00 0.00 0.00 93 1021.6
20260904031030 62 103 2.0 3.0 0.00 0.00 0.00 93 1021.6
20260904030054 63 120 2.0 3.0 0.00 0.00 0.00 93 1021.7
20260904025118 65 115 2.0 4.0 0.00 0.00 0.00 94 1021.7
20260904024037 65 80 1.0 2.0 0.00 0.00 0.00 93 1021.5
20260904023102 65 86 2.0 3.0 0.00 0.00 0.00 93 1021.6
20260904022042 65 16 1.0 3.0 0.00 0.00 0.00 93 1021.7
20260904021046 64 38 0.0 2.0 0.00 0.00 0.00 93 1021.8
20260904020109 64 7 2.0 3.0 0.00 0.00 0.00 92 1021.9
20260904015030 64 36 1.0 2.0 0.00 0.00 0.00 92 1022.1
20260904014053 63 32 1.0 2.0 0.00 0.00 0.00 92 1022.2
20260904013020 64 0.0 0.0 0.00 0.00 0.00 91 1022.3
20260904012037 64 0.0 0.0 0.00 0.00 0.00 91 1022.2
20260904011101 64 0.0 0.0 0.00 0.00 0.00 91 1022.3
20260904010021 64 0.0 0.0 0.00 0.00 0.00 90 1022.2
20260904005047 64 69 0.0 1.0 0.00 0.00 0.00 90 1022.4
20260904004110 64 94 2.0 2.0 0.00 0.00 0.00 90 1022.4
20260904003030 64 114 3.0 4.0 0.00 0.00 0.00 90 1022.2
20260904002134 64 94 2.0 6.0 0.00 0.00 0.00 90 1022.2
20260904001117 65 134 3.0 6.0 0.00 0.00 0.00 89 1022.2
20260904000038 65 107 2.0 4.0 0.00 0.00 0.00 89 1022.1
20260903235102 65 87 1.0 3.0 0.00 0.00 0.00 89 1022.3
20260903234022 65 105 2.0 3.0 0.00 0.00 0.00 89 1022.3
20260903233046 66 67 1.0 2.0 0.00 0.00 0.00 89 1022.2
20260903232110 67 43 1.0 1.0 0.00 0.00 0.00 89 1022.2
20260903231030 67 32 0.0 1.0 0.00 0.00 0.00 89 1022.1
20260903230054 68 19 1.0 2.0 0.00 0.00 0.00 88 1022.1
20260903225119 68 25 2.0 3.0 0.00 0.00 0.00 88 1022.2
20260903224037 68 24 1.0 2.0 0.00 0.00 0.00 88 1022.2
20260903223102 68 359 2.0 3.0 0.00 0.00 0.00 88 1022.3
20260903222022 67 38 0.0 1.0 0.00 0.00 0.00 88 1022.3
20260903221046 67 49 0.0 1.0 0.00 0.00 0.00 87 1022.3
20260903220110 68 35 0.0 1.0 0.00 0.00 0.00 87 1022.3
20260903215030 68 38 0.0 1.0 0.00 0.00 0.00 87 1022.3
20260903214053 68 0.0 0.0 0.00 0.00 0.00 86 1022.3
20260903213118 69 35 0.0 1.0 0.00 0.00 0.00 85 1022.3
20260903212037 70 34 0.0 1.0 0.00 0.00 0.00 83 1022.2
20260903211122 70 0.0 0.0 0.00 0.00 0.00 82 1022.3
20260903210022 71 37 0.0 1.0 0.00 0.00 0.00 80 1022.2
20260903205045 71 0.0 0.0 0.00 0.00 0.00 79 1022.0
20260903204109 71 71 1.0 1.0 0.00 0.00 0.00 79 1022.0
20260903203030 71 74 1.0 2.0 0.00 0.00 0.00 79 1021.9
20260903202053 71 69 0.0 1.0 0.00 0.00 0.00 77 1021.9
20260903201158 71 88 1.0 2.0 0.00 0.00 0.00 77 1021.8
20260903200118 71 45 0.0 1.0 0.00 0.00 0.00 76 1021.7
20260903195101 71 0.0 1.0 0.00 0.00 0.00 78 1021.5
20260903194041 71 55 0.0 1.0 0.00 0.00 0.00 80 1021.5
20260903193045 71 32 0.0 2.0 0.00 0.00 0.00 80 1021.4
20260903192110 73 39 2.0 3.0 0.00 0.00 0.00 75 1021.2
20260903191050 74 54 0.0 2.0 0.00 0.00 0.00 70 1021.2
20260903190053 75 46 1.0 3.0 0.00 0.00 0.00 68 1021.3
20260903185118 77 54 0.0 1.0 0.00 0.00 0.00 64 1021.2
20260903184037 78 0.0 1.0 0.00 0.00 0.00 63 1021.2
20260903183102 77 44 1.0 2.0 0.00 0.00 0.00 64 1021.2
20260903182021 77 37 0.0 2.0 0.00 0.00 0.00 66 1021.3
20260903181046 75 33 1.0 3.0 0.00 0.00 0.00 72 1021.3
20260903180109 75 28 2.0 3.0 0.00 0.00 0.00 72 1021.2
20260903175029 77 48 3.0 4.0 0.00 0.00 0.00 68 1021.1
20260903174053 77 42 2.0 6.0 0.00 0.00 0.00 67 1021.2
20260903173118 77 338 3.0 6.0 0.00 0.00 0.00 67 1021.3
20260903172038 78 46 3.0 4.0 0.00 0.00 0.00 64 1021.2
20260903171101 78 4 2.0 3.0 0.00 0.00 0.00 63 1021.3
20260903170022 78 37 3.0 4.0 0.00 0.00 0.00 66 1021.3
20260903165046 77 14 3.0 4.0 0.00 0.00 0.00 66 1021.2
20260903164109 78 14 4.0 7.0 0.00 0.00 0.00 67 1021.3
20260903163030 79 1 3.0 6.0 0.00 0.00 0.00 64 1021.3
20260903162054 79 21 2.0 4.0 0.00 0.00 0.00 63 1021.3
20260903161118 79 20 3.0 6.0 0.00 0.00 0.00 62 1021.5
20260903160058 79 19 3.0 4.0 0.00 0.00 0.00 63 1021.5
20260903155142 81 34 2.0 3.0 0.00 0.00 0.00 61 1021.5
20260903154021 78 33 2.0 6.0 0.00 0.00 0.00 67 1021.6
20260903153046 77 11 3.0 6.0 0.00 0.00 0.00 68 1021.7
20260903152110 77 21 3.0 7.0 0.00 0.00 0.00 68 1021.7
20260903151030 78 58 2.0 4.0 0.00 0.00 0.00 66 1021.9
20260903150054 77 21 3.0 6.0 0.00 0.00 0.00 68 1022.0
20260903145118 76 18 4.0 6.0 0.00 0.00 0.00 69 1022.2
20260903144038 76 27 3.0 7.0 0.00 0.00 0.00 69 1022.2
20260903143102 76 347 3.0 7.0 0.00 0.00 0.00 70 1022.2
20260903142022 76 38 3.0 6.0 0.00 0.00 0.00 69 1022.3
20260903141046 76 3 3.0 7.0 0.00 0.00 0.00 69 1022.3
20260903140110 75 359 4.0 8.0 0.00 0.00 0.00 71 1022.4
20260903135029 75 45 3.0 7.0 0.00 0.00 0.00 70 1022.4
20260903134054 75 350 5.0 8.0 0.00 0.00 0.00 70 1022.4
20260903133137 75 8 4.0 7.0 0.00 0.00 0.00 71 1022.5
20260903132038 76 32 3.0 7.0 0.00 0.00 0.00 68 1022.4
20260903131142 76 351 4.0 7.0 0.00 0.00 0.00 67 1022.4
20260903130022 76 53 3.0 4.0 0.00 0.00 0.00 68 1022.5
20260903125046 77 35 3.0 4.0 0.00 0.00 0.00 65 1022.6
20260903124110 75 16 3.0 6.0 0.00 0.00 0.00 69 1022.7
20260903123029 73 26 4.0 7.0 0.00 0.00 0.00 71 1022.6
20260903122053 74 22 3.0 6.0 0.00 0.00 0.00 71 1022.7
20260903121137 73 337 4.0 8.0 0.00 0.00 0.00 71 1022.8
20260903120038 72 340 4.0 8.0 0.00 0.00 0.00 73 1022.9
20260903115102 72 17 5.0 8.0 0.00 0.00 0.00 72 1023.0
20260903114043 73 68 3.0 7.0 0.00 0.00 0.00 70 1022.9
20260903113045 74 23 3.0 6.0 0.00 0.00 0.00 67 1023.0
20260903112109 76 11 3.0 7.0 0.00 0.00 0.00 67 1023.0
20260903111029 76 356 2.0 4.0 0.00 0.00 0.00 64 1023.0
20260903110053 77 22 2.0 3.0 0.00 0.00 0.00 63 1023.0
20260903105118 77 51 1.0 3.0 0.00 0.00 0.00 64 1023.0
20260903104038 76 119 2.0 6.0 0.00 0.00 0.00 66 1023.1
20260903103102 76 63 0.0 2.0 0.00 0.00 0.00 66 1023.3
20260903102021 73 127 2.0 4.0 0.00 0.00 0.00 70 1023.3
20260903101046 72 133 2.0 4.0 0.00 0.00 0.00 70 1023.4
20260903100110 71 100 2.0 4.0 0.00 0.00 0.00 73 1023.4
20260903095029 71 94 1.0 3.0 0.00 0.00 0.00 73 1023.4
20260903094113 69 73 1.0 2.0 0.00 0.00 0.00 81 1023.3
20260903093117 66 95 1.0 2.0 0.00 0.00 0.00 90 1023.3
20260903092038 64 101 2.0 6.0 0.00 0.00 0.00 93 1023.4
20260903091102 64 128 2.0 4.0 0.00 0.00 0.00 94 1023.5
20260903090042 63 62 1.0 2.0 0.00 0.00 0.00 96 1023.5
20260903085046 63 50 0.0 1.0 0.00 0.00 0.00 96 1023.5
20260903084109 62 79 0.0 2.0 0.00 0.00 0.00 96 1023.6
20260903083029 61 81 1.0 2.0 0.00 0.00 0.00 96 1023.5
20260903082054 61 93 2.0 3.0 0.00 0.00 0.00 97 1023.6
20260903081118 60 100 2.0 3.0 0.00 0.00 0.00 97 1023.7
20260903080037 60 98 2.0 4.0 0.00 0.00 0.00 97 1023.5
20260903075101 60 99 2.0 4.0 0.00 0.00 0.00 97 1023.5
20260903074022 59 150 3.0 4.0 0.00 0.00 0.00 97 1023.6
20260903073046 59 134 2.0 6.0 0.00 0.00 0.00 97 1023.3
20260903072109 59 120 3.0 4.0 0.00 0.00 0.00 97 1023.2
20260903071030 59 93 3.0 4.0 0.00 0.00 0.00 97 1023.2
20260903070053 59 89 2.0 3.0 0.00 0.00 0.00 97 1023.1
20260903065117 59 76 1.0 3.0 0.00 0.00 0.00 97 1023.1
20260903064058 59 82 2.0 4.0 0.00 0.00 0.00 96 1023.0
20260903063102 59 90 1.0 3.0 0.00 0.00 0.00 97 1023.0
20260903062022 59 101 3.0 6.0 0.00 0.00 0.00 96 1022.9
20260903061045 58 93 1.0 3.0 0.00 0.00 0.00 96 1023.0
20260903060130 59 104 2.0 4.0 0.00 0.00 0.00 96 1023.1
20260903055029 59 76 0.0 1.0 0.00 0.00 0.00 96 1023.0
20260903054053 59 0.0 0.0 0.00 0.00 0.00 96 1023.0
20260903053118 60 69 0.0 1.0 0.00 0.00 0.00 96 1022.9
20260903052037 60 71 0.0 1.0 0.00 0.00 0.00 96 1023.0